EHI
33 32 33 34 32 32 35 37 37 33 27 20 17 14 11 11 10 10 9 6 3 1 0 1 1 1 1 2 2 1 0 1 0 0 0 1 2 3 3 3 1 0 0
32 32 35 37 36 36 38 39 38 35 27 19 16 14 12 12 11 9 8 6 3 1 0 0 0 0 0 1 1 0 0 1 0 0 0 1 2 3 5 4 2 0 0
32 32 35 37 37 38 40 40 39 35 28 21 17 14 13 13 11 8 6 6 5 3 2 1 0 0 0 0 0 0 0 0 0 0 0 1 2 3 4 4 2 0 0
33 32 33 35 36 38 40 39 38 35 28 23 20 17 14 14 11 7 6 8 7 6 4 2 0 0 0 0 0 0 0 0 0 0 0 0 1 2 3 3 1 1 1
34 31 31 34 36 39 40 39 38 34 27 23 22 19 15 13 9 7 7 9 10 8 5 3 1 0 1 0 0 0 0 0 0 0 0 0 0 1 2 2 1 1 2
32 30 29 33 35 37 39 39 38 34 28 25 24 21 16 11 6 4 6 9 11 9 6 3 1 0 0 0 0 0 0 0 0 0 0 0 0 0 2 3 2 2 2
29 27 28 30 33 33 34 36 37 36 32 28 26 23 17 9 3 1 4 9 11 9 7 3 1 0 0 0 0 0 0 0 0 0 0 0 0 0 2 3 3 3 3
24 25 28 30 31 32 32 32 34 34 32 28 27 24 17 7 1 0 2 6 8 7 5 3 1 0 0 0 0 0 0 0 0 0 0 0 0 1 2 2 2 2 2
20 23 27 30 31 32 32 32 31 30 27 23 22 22 15 6 1 0 1 4 5 4 3 2 1 0 0 0 0 1 2 2 1 0 0 0 0 1 1 1 1 2 2
22 24 27 30 30 31 32 32 31 28 22 18 17 17 14 7 1 0 1 2 3 2 1 1 1 0 0 0 1 2 3 2 1 0 0 0 0 0 0 1 1 2 2
24 25 28 30 29 30 31 32 30 26 20 16 16 15 13 7 2 0 0 1 1 1 1 1 1 0 0 0 1 2 2 1 0 0 0 0 1 1 1 1 1 2 3
24 25 27 28 27 26 28 29 28 24 19 16 14 12 10 6 2 0 0 0 1 2 2 2 1 0 0 0 0 1 1 0 0 0 0 0 1 2 2 3 3 4 4
26 26 27 27 25 23 24 25 25 21 17 13 10 8 7 6 3 1 0 0 1 2 2 1 0 0 0 0 0 0 0 0 0 0 0 1 2 2 3 4 5 6 7
26 26 27 26 24 21 21 21 21 19 16 12 8 6 5 5 5 3 1 0 0 1 1 0 0 0 0 1 1 1 0 0 0 0 0 1 2 2 2 4 5 6 6
24 24 24 24 22 19 17 16 15 14 12 10 7 5 4 4 3 3 1 0 0 0 0 1 1 0 0 1 2 1 0 0 0 0 0 0 1 1 1 3 4 4 2
22 20 18 18 18 17 15 11 8 6 5 4 3 3 2 1 1 1 1 0 0 0 0 1 1 1 1 1 1 1 0 0 0 0 1 1 0 0 0 1 2 2 1
20 17 14 13 14 14 14 10 5 3 1 1 0 0 0 0 0 0 0 0 0 0 0 1 1 1 1 2 1 0 0 0 0 1 2 2 1 0 0 0 1 1 0
17 15 12 10 10 11 10 8 5 3 2 2 1 0 0 0 0 0 0 0 0 0 0 0 0 0 1 2 2 1 0 0 1 2 3 2 1 0 0 0 0 0 0
14 12 10 9 8 7 6 3 2 1 2 3 3 1 0 0 0 0 0 0 1 1 0 0 0 0 0 1 1 1 0 1 1 2 3 3 1 1 0 0 0 0 0
9 8 8 6 6 5 2 0 0 0 1 3 4 2 0 0 0 0 0 0 1 1 0 0 0 0 0 0 1 1 1 1 2 2 2 3 3 2 1 1 0 0 0
5 5 4 4 4 4 2 1 1 1 2 3 3 1 0 0 1 1 1 1 1 1 0 0 0 0 0 0 1 2 1 2 3 2 2 3 4 4 3 1 0 0 0
4 4 3 2 3 3 3 2 3 3 2 2 2 1 0 1 2 2 2 1 0 0 0 0 0 0 0 0 1 2 2 3 3 3 2 3 3 4 3 1 0 0 0
2 2 2 2 2 2 2 1 1 1 1 1 1 1 1 2 2 1 1 1 0 0 0 0 0 0 0 0 1 1 3 3 3 3 3 3 3 3 3 1 1 0 0
1 1 1 1 1 1 1 0 0 0 0 0 1 2 2 2 1 0 0 0 0 0 0 1 1 0 0 0 1 1 2 2 3 3 3 3 3 3 3 3 2 1 0
0 0 0 0 0 0 0 0 0 0 0 1 2 2 1 1 0 0 0 0 0 0 0 1 1 1 0 1 1 1 1 1 1 2 3 3 3 4 4 3 3 1 0
0 0 0 0 0 0 0 0 0 0 1 2 3 2 1 0 0 0 0 0 0 0 0 1 1 1 1 2 2 1 0 0 0 1 2 3 4 5 5 4 3 2 1
Wind_Speed
5 6 5 5 5 5 4 4 4 3 3 4 4 4 4 4 4 3 3 4 4 3 3 3 3 2 1 1 1 1 1 1 2 2 1 1 2 1 2 3 3 4 6
4 4 4 5 5 5 4 4 4 4 4 4 4 4 4 4 4 4 4 4 4 3 3 2 2 2 2 1 1 2 2 1 2 2 2 1 2 2 3 3 4 4 4
5 5 4 4 5 5 4 4 4 4 4 4 4 4 4 4 4 4 4 4 4 3 3 3 3 2 2 1 2 2 2 2 2 2 2 2 2 2 2 3 3 2 3
4 5 4 4 4 4 4 4 4 4 4 4 4 5 5 5 5 4 4 4 3 3 3 3 3 3 3 2 3 2 2 1 2 2 2 2 2 2 2 2 2 2 2
3 4 5 5 4 4 4 4 4 4 5 4 4 4 4 4 5 4 4 4 3 3 3 3 3 3 3 3 3 2 2 2 2 2 3 2 2 1 2 2 2 2 2
2 3 4 4 5 5 5 4 4 4 4 4 5 5 5 4 4 5 4 3 3 3 3 3 3 4 4 4 4 3 3 3 3 2 3 3 3 2 2 2 1 1 2
2 3 3 4 5 5 6 5 5 4 4 4 4 4 4 3 5 5 5 4 4 3 3 3 4 3 4 3 3 4 4 6 6 3 4 4 3 2 2 2 2 2 3
2 3 3 3 4 4 5 5 4 4 4 4 3 3 3 4 5 6 6 5 4 4 4 4 4 3 3 2 3 3 4 4 6 6 5 5 4 2 2 3 3 3 3
2 2 3 3 4 4 4 5 5 4 4 4 4 4 4 4 5 6 6 4 4 5 5 5 5 4 4 4 3 3 3 4 6 6 6 5 5 5 3 2 3 3 3
2 2 2 2 3 4 4 4 4 4 4 4 4 4 4 4 5 6 6 4 4 4 4 5 6 6 5 6 4 3 4 4 4 3 4 5 6 7 8 6 5 4 3
2 3 3 2 3 3 3 3 4 4 4 4 4 4 4 5 6 7 7 4 4 4 4 3 3 5 7 7 5 4 5 4 4 4 4 5 5 5 5 6 6 5 4
3 3 3 3 3 3 3 3 4 4 5 5 4 4 3 4 6 7 9 8 5 3 3 2 2 5 6 6 5 6 6 4 4 4 4 5 5 5 4 5 6 6 5
3 3 2 3 3 2 3 4 5 5 5 4 4 5 4 4 5 8 9 8 6 3 2 2 3 6 6 6 8 7 5 4 4 5 5 5 4 4 3 3 4 4 4
3 3 2 2 3 2 3 4 4 4 5 4 4 4 3 4 4 4 4 5 5 4 3 3 4 6 6 5 4 4 5 5 5 5 4 4 3 3 3 3 3 3 3
3 3 3 3 3 3 3 2 3 3 4 5 4 3 3 3 2 5 4 3 3 3 2 2 3 3 3 4 4 4 4 4 5 4 4 3 3 3 3 3 3 3 3
3 3 3 3 2 3 3 2 1 2 4 5 3 2 1 4 6 6 5 4 3 3 2 3 3 3 4 3 3 3 3 4 4 4 4 3 3 3 3 3 2 3 3
4 4 4 4 3 3 3 3 3 1 2 3 5 5 5 6 6 5 5 4 3 4 3 4 4 4 4 3 3 3 3 2 2 3 3 3 3 3 2 2 2 2 3
5 5 4 4 4 3 4 4 4 4 3 3 4 7 8 8 7 7 6 4 3 4 5 5 4 3 3 3 3 2 2 2 2 2 2 2 2 2 2 2 2 3 3
5 4 4 4 4 4 3 4 4 4 3 3 3 4 6 6 5 5 7 5 5 5 5 5 4 3 3 2 2 2 2 1 1 1 1 1 1 2 2 2 2 3 3
4 5 5 4 4 3 3 3 3 3 2 3 3 3 5 4 4 4 5 5 5 5 5 4 3 2 2 2 2 2 2 1 1 1 1 1 1 2 3 3 3 3 3
5 4 4 4 4 3 3 3 3 2 2 3 3 3 5 5 5 5 5 5 5 4 3 3 2 2 3 2 2 2 2 2 2 2 2 2 2 2 2 2 2 3 3
5 4 3 4 3 2 2 2 3 3 3 3 3 3 6 4 3 3 4 4 4 3 3 2 2 2 1 1 1 1 1 1 1 1 2 2 2 2 2 3 3 2 2
5 4 4 3 2 2 2 2 3 3 2 2 2 2 3 3 3 2 3 2 2 2 2 2 2 2 1 1 1 1 1 1 1 2 2 3 3 3 2 3 4 3 3
4 4 4 3 3 2 2 2 2 2 2 2 1 2 2 2 2 2 1 1 1 1 1 1 1 1 0 1 1 0 0 1 1 2 3 3 4 4 3 3 4 4 4
5 4 3 2 2 2 2 2 2 2 2 2 1 1 2 2 1 1 1 1 1 1 1 1 1 1 1 1 1 0 1 1 1 2 2 3 4 4 3 4 3 4 4
5 5 4 2 2 2 1 1 2 2 2 2 1 1 2 1 1 1 1 1 1 1 1 2 2 2 1 1 1 2 1 1 0 2 2 2 4 4 4 3 5 4 5
Wind_Direction
189 192 185 184 191 193 197 189 183 181 181 180 180 185 194 193 191 195 205 196 207 217 221 212 219 241 254 252 245 246 259 231 241 267 274 179 174 191 183 217 216 197 203
187 185 185 182 185 191 197 189 181 183 186 184 186 190 196 191 192 200 213 203 207 212 219 221 226 232 228 246 234 237 239 228 221 245 257 238 217 200 192 224 237 214 194
182 184 186 190 189 191 191 182 183 186 190 189 189 193 196 193 197 207 211 212 214 214 212 218 221 223 227 226 237 239 241 246 220 232 245 239 217 207 194 240 251 240 234
179 182 191 203 195 192 189 184 183 187 192 192 194 200 199 200 203 206 210 216 219 220 216 220 225 217 217 221 233 230 243 250 243 252 255 241 215 210 195 230 253 241 248
187 190 195 197 196 193 191 191 188 189 196 196 196 204 203 206 206 198 209 214 214 222 212 214 224 203 210 221 231 223 244 243 247 243 249 248 233 199 204 232 248 250 254
214 205 198 194 197 199 196 192 189 193 197 195 201 206 207 212 178 181 206 220 217 223 217 217 216 193 193 204 214 218 227 238 246 250 255 253 245 232 212 233 237 252 261
226 215 200 200 197 197 201 195 193 195 199 201 207 202 197 198 186 191 210 223 221 218 220 226 239 221 186 193 200 213 225 229 225 236 257 265 263 251 240 252 255 261 254
237 228 202 204 196 189 189 188 195 195 203 203 205 205 200 202 196 199 205 221 224 220 220 223 229 229 217 203 212 222 223 219 218 224 236 250 261 264 247 243 248 253 253
241 241 213 208 200 195 194 192 193 196 199 204 207 208 209 199 194 197 200 218 221 223 223 221 219 216 206 199 211 228 239 246 234 230 227 235 249 257 249 249 245 245 261
262 252 243 229 204 204 196 192 191 195 199 205 209 209 204 194 195 198 201 228 228 228 223 219 219 219 205 193 207 226 240 251 253 232 238 243 244 243 229 218 223 234 246
285 271 254 240 218 205 193 194 192 198 207 211 209 208 202 197 188 195 196 221 240 241 232 227 213 198 205 211 216 232 240 250 260 241 231 235 235 232 223 215 214 220 231
293 282 264 238 233 215 195 198 206 205 209 213 210 213 207 192 189 197 201 216 245 256 258 251 186 181 202 216 223 235 242 245 251 247 241 238 233 229 227 221 217 219 225
297 279 265 249 237 211 197 204 209 207 210 214 212 215 209 196 187 189 199 215 229 249 276 274 237 215 218 224 232 234 228 228 235 241 241 239 236 229 224 217 208 213 226
293 282 254 243 238 226 214 211 211 210 209 214 212 213 206 192 181 179 194 207 212 225 248 256 241 234 234 235 228 227 222 227 231 242 247 245 238 225 224 217 209 209 229
299 284 267 251 239 224 230 240 221 215 210 213 221 213 203 199 174 169 177 193 200 207 210 217 222 219 220 217 214 216 219 222 229 239 249 247 239 233 228 214 206 214 226
293 288 282 270 245 223 213 228 277 237 191 189 195 202 172 156 145 142 149 153 165 173 190 227 231 229 226 230 229 228 226 229 233 234 235 238 239 235 231 218 205 216 231
287 283 279 278 267 243 228 222 214 224 204 200 203 195 194 176 166 167 167 169 188 180 209 233 233 227 231 228 224 227 232 236 236 244 246 235 233 238 235 225 214 224 239
287 274 268 266 266 255 239 233 226 213 204 216 216 204 197 189 184 183 171 164 201 207 223 232 235 230 228 222 217 222 232 237 244 250 256 252 243 241 248 242 224 231 245
292 279 267 263 263 260 247 240 239 228 212 208 197 189 195 188 188 191 182 207 223 226 226 227 229 233 231 216 209 215 229 234 245 260 275 287 287 276 264 247 239 246 246
292 281 273 269 266 264 266 256 245 233 217 216 211 186 167 174 194 197 206 221 230 235 229 226 223 227 236 225 205 203 207 209 216 244 274 284 281 277 278 268 258 255 246
295 288 270 268 265 258 259 268 265 242 223 219 221 192 175 201 210 208 207 216 230 236 235 237 229 228 231 224 213 207 199 210 215 230 249 259 269 279 285 284 277 272 276
302 296 275 270 269 272 271 264 263 263 241 227 217 186 185 208 218 214 210 209 219 224 222 226 232 230 228 219 198 193 223 241 238 240 263 276 270 257 261 270 277 276 273
294 291 283 275 264 253 260 259 258 263 262 251 240 207 195 213 221 226 224 217 223 225 216 210 226 237 226 161 147 173 230 250 253 254 260 265 269 264 262 269 275 273 273
301 291 277 276 272 249 243 251 258 268 275 273 254 213 206 214 218 224 211 201 208 227 241 218 212 244 241 128 122 153 4 333 306 284 281 277 272 266 260 259 266 269 265
310 306 291 273 272 264 252 253 260 266 269 268 250 213 202 205 214 219 217 212 213 218 236 236 225 217 208 168 162 101 107 131 325 313 294 282 280 279 276 273 272 274 271
309 308 309 300 288 287 273 264 264 271 269 260 240 223 194 187 196 209 211 218 223 235 246 252 234 205 202 208 138 110 128 136 230 303 306 297 289 288 290 282 278 276 273